Tracking 18795 objects as of 22-August-2017
HD Live streaming from Space Station
objects crossing your sky now

CRRES DEB (CANISTER)

Track CRRES DEB (CANISTER) now!


NORAD ID: 27051
Int'l Code: 1990-065U
Perigee: 290.8 km
Apogee: 30,210.1 km
Inclination: 17.9 °
Period: 527.3 minutes
Semi major axis: 21621 km
RCS: 0.1304 m2 (medium)
Launch date: July 25, 1990
Source: United States (US)
Launch site: AIR FORCE EASTERN TEST RANGE (AFETR)

Note: This is SATELLITE DEBRIS
Your satellite tracking list
Your tracking list is empty





NASA's NSSDC Master Catalog

Two Line Element Set (TLE):
1 27051U 90065U   17233.05330288 +.00001461 +00000-0 +58509-3 0  9992
2 27051 017.8602 193.8499 6918885 281.2110 013.8878 02.73071117043803
Source of the keplerian elements: AFSPC